Other Public Products
Issued by NWS Charleston, SC

Current Version | Previous Version | Graphics & Text | Print | Product List | Glossary On
Versions: 1 2 3 4 5 6 7 8 9 10 11 12 13 14 15 16 17 18 19 20 21 22 23 24 25 26 27 28 29 30 31 32 33 34 35 36 37 38 39 40 41 42 43 44 45 46 47 48 49 50
000 FPUS82 KCHS 220512 OPUCHS TEST...KCHS/KSAV Gateway Observations...TEST National Weather Service Charleston SC 100 AM EDT SAT JUL 22 2017 NOTE: "fair" indicates few or no clouds below 12,000 feet with no significant weather and/or obstructions to visibility. SCZ050-WAZ558-NCZ071-TXZ119-213-PAZ071-DCZ001-FLZ074-172-MI076- NYZ176-178-MAZ016-IL014-TNZ027-NJZ106-GAZ044-MD014-220600- ...Gateway Observations for Charleston International... CITY SKY/WX TMP DP RH WIND PRES REMARKS Chas Airport CLEAR 77 75 93 S5 30.03S Seattle MOCLDY 65 52 62 NW3 30.15R Charlotte MOCLDY 82 70 66 SW8 30.01F Dallas DFW CLEAR 87 71 58 S9 29.94R HX 93 Dallas Love PTCLDY 89 70 53 S14 29.95R HX 94 Philladelphia CLOUDY 82 73 74 CALM 29.89F Wash National CLOUDY 84 75 74 NW9 29.90S HX 92 Baltimore CLOUDY 79 76 90 CALM 29.89S Miami CLOUDY 79 74 84 CALM 30.08F Detroit LGT RAIN 78 69 73 SE5 29.95S Newark MOCLDY 84 70 62 W9 29.86F Laguardia MOCLDY 88 71 57 W13 29.85F HX 94 J F K MOCLDY 82 74 76 SW9 29.88S Boston Logan PTCLDY 79 59 50 W14G22 29.82S Ft. Lauderdale MOCLDY 79 75 87 CALM 30.07S Chicago O`Hare TSTM 75 71 87 SE6 29.85F Chicago Midway TSTM 75 72 90 S12 29.86F FOG Houston Bush MOCLDY 83 75 77 SW3 29.98R HX 90 Houston Hobby MOCLDY 83 75 77 S6 29.97F HX 90 Nashville CLEAR 83 75 77 CALM 30.00S HX 90 Atlanta PTCLDY 79 71 76 SW7 30.04S $$ GAZ044-118-TXZ119-213-NCZ071-DCZ001-MDZ014-506-PAZ021-071-NJZ106- NYZ176-178-MAZ106-OHZ011-021-055-MIZ076-KYZ091-ILZ014-INZ047- MNZ060-ONZ431-220600- ...Gateway Observations for Savannah International... CITY SKY/WX TMP DP RH WIND PRES REMARKS Savannah Arpt CLEAR N/A N/A N/A SW3 30.04S Atlanta PTCLDY 79 71 76 SW7 30.04S Charlotte MOCLDY 82 70 66 SW8 30.01F Dallas DFW CLEAR 87 71 58 S9 29.94R HX 93 Houston Bush MOCLDY 83 75 77 SW3 29.98R HX 90 Wash National CLOUDY 84 75 74 NW9 29.90S HX 92 Wash Dulles MOCLDY 79 70 74 NW6 29.91F Baltimore CLOUDY 79 76 90 CALM 29.89S Philadelphia CLOUDY 82 73 74 CALM 29.89F Newark MOCLDY 84 70 62 W9 29.86F Laguardia MOCLDY 88 71 57 W13 29.85F HX 94 J F K MOCLDY 82 74 76 SW9 29.88S Boston PTCLDY 79 59 50 W14G22 29.82S Pittsburg CLOUDY 76 73 91 SW6 30.00S Akron CLOUDY 77 70 79 SE6 30.00S Cleveland CLOUDY 75 69 81 SE5 29.99R Cincinnati CLOUDY 75 74 96 S3 29.96F Columbus CLEAR 72 72 100 S6 29.98S Detroit LGT RAIN 78 69 73 SE5 29.95S Chicago O`Hare TSTM 75 71 87 SE6 29.85F Minneapolis MOCLDY 76 66 71 NE15 29.86F Indianapolis CLOUDY 78 75 90 SE10 29.90F Toronto Canada MOCLDY 70 59 68 W6 29.94R $$

USA.gov is the U.S. government's official web portal to all federal, state and local government web resources and services.